Previsão horária em Jufureh

Hoje, 18 Junho, Sexta-feira

Tempo Temperatura Precipitação Vento Pressão Humidade
00:00 +28°C° 0.1 mm 3 m/s 759 mmHg 76%
01:00 +27°C° 0.1 mm 3 m/s 758 mmHg 77%
02:00 +27°C° 0.1 mm 3 m/s 758 mmHg 78%
03:00 +27°C° 0 mm 3 m/s 758 mmHg 79%
04:00 +27°C° 0 mm 3 m/s 758 mmHg 80%
05:00 +27°C° 0 mm 2 m/s 758 mmHg 81%
06:00 +27°C° 0 mm 2 m/s 758 mmHg 76%
07:00 +28°C° 0 mm 2 m/s 759 mmHg 71%
08:00 +29°C° 0 mm 2 m/s 759 mmHg 66%
09:00 +31°C° 0 mm 2 m/s 759 mmHg 59%
10:00 +34°C° 0 mm 3 m/s 759 mmHg 51%
11:00 +36°C° 0 mm 3 m/s 759 mmHg 43%
12:00 +36°C° 0 mm 4 m/s 758 mmHg 43%
13:00 +37°C° 0 mm 5 m/s 758 mmHg 43%
14:00 +38°C° 0 mm 6 m/s 757 mmHg 43%
15:00 +36°C° 0 mm 6 m/s 757 mmHg 46%
16:00 +35°C° 0 mm 6 m/s 757 mmHg 50%
17:00 +34°C° 0 mm 6 m/s 757 mmHg 53%
18:00 +32°C° 0 mm 6 m/s 757 mmHg 59%
19:00 +30°C° 0 mm 6 m/s 758 mmHg 65%
20:00 +29°C° 0 mm 6 m/s 758 mmHg 71%
21:00 +28°C° 0 mm 6 m/s 758 mmHg 73%
22:00 +28°C° 0 mm 5 m/s 759 mmHg 75%
23:00 +28°C° 0 mm 5 m/s 759 mmHg 76%

Amanhã, 19 Junho, Sábado

Tempo Temperatura Precipitação Vento Pressão Humidade
00:00 +27°C° 0 mm 5 m/s 759 mmHg 78%
01:00 +27°C° 0 mm 4 m/s 758 mmHg 79%
02:00 +27°C° 0 mm 4 m/s 758 mmHg 80%
03:00 +27°C° 0 mm 4 m/s 758 mmHg 80%
04:00 +27°C° 0 mm 3 m/s 758 mmHg 81%
05:00 +26°C° 0 mm 3 m/s 758 mmHg 82%
06:00 +27°C° 0 mm 3 m/s 759 mmHg 77%
07:00 +28°C° 0 mm 4 m/s 759 mmHg 71%
08:00 +29°C° 0 mm 4 m/s 759 mmHg 66%
09:00 +30°C° 0 mm 4 m/s 759 mmHg 58%
10:00 +33°C° 0 mm 4 m/s 759 mmHg 50%
11:00 +34°C° 0 mm 5 m/s 759 mmHg 42%
12:00 +34°C° 0 mm 5 m/s 759 mmHg 40%
13:00 +35°C° 0 mm 5 m/s 758 mmHg 39%
14:00 +35°C° 0 mm 5 m/s 758 mmHg 38%
15:00 +34°C° 0 mm 5 m/s 758 mmHg 40%
16:00 +34°C° 0 mm 5 m/s 758 mmHg 42%
17:00 +33°C° 0 mm 5 m/s 758 mmHg 45%
18:00 +30°C° 0 mm 6 m/s 758 mmHg 52%
19:00 +29°C° 0 mm 6 m/s 758 mmHg 59%
20:00 +28°C° 0 mm 6 m/s 759 mmHg 66%
21:00 +27°C° 0 mm 6 m/s 759 mmHg 68%
22:00 +27°C° 0 mm 6 m/s 759 mmHg 70%
23:00 +27°C° 0 mm 6 m/s 758 mmHg 72%

Depois de amanhã, 20 Junho, Domingo

Tempo Temperatura Precipitação Vento Pressão Humidade
00:00 +27°C° 0 mm 5 m/s 758 mmHg 74%
01:00 +26°C° 0 mm 5 m/s 758 mmHg 75%
02:00 +26°C° 0 mm 4 m/s 758 mmHg 77%
03:00 +26°C° 0 mm 4 m/s 758 mmHg 78%
04:00 +26°C° 0 mm 4 m/s 758 mmHg 79%
05:00 +26°C° 0 mm 3 m/s 758 mmHg 80%
06:00 +27°C° 0 mm 3 m/s 759 mmHg 74%
07:00 +27°C° 0 mm 3 m/s 759 mmHg 68%
08:00 +28°C° 0 mm 3 m/s 759 mmHg 62%
09:00 +30°C° 0 mm 3 m/s 759 mmHg 54%
10:00 +33°C° 0 mm 4 m/s 759 mmHg 46%
11:00 +34°C° 0 mm 4 m/s 759 mmHg 38%
12:00 +35°C° 0 mm 4 m/s 758 mmHg 38%
13:00 +35°C° 0 mm 5 m/s 757 mmHg 37%
14:00 +36°C° 0 mm 5 m/s 757 mmHg 37%
15:00 +35°C° 0 mm 5 m/s 757 mmHg 41%
16:00 +34°C° 0 mm 6 m/s 757 mmHg 45%
17:00 +33°C° 0 mm 6 m/s 756 mmHg 49%
18:00 +30°C° 0 mm 6 m/s 757 mmHg 56%
19:00 +29°C° 0 mm 6 m/s 757 mmHg 62%
20:00 +28°C° 0 mm 6 m/s 757 mmHg 69%
21:00 +27°C° 0 mm 6 m/s 758 mmHg 69%
22:00 +27°C° 0 mm 5 m/s 758 mmHg 70%
23:00 +27°C° 0 mm 4 m/s 758 mmHg 70%

21 Junho, Segunda-feira

Tempo Temperatura Precipitação Vento Pressão Humidade
00:00 +27°C° 0 mm 4 m/s 758 mmHg 71%
01:00 +27°C° 0 mm 4 m/s 758 mmHg 72%
02:00 +26°C° 0 mm 3 m/s 758 mmHg 73%
03:00 +26°C° 0 mm 3 m/s 758 mmHg 75%
04:00 +26°C° 0 mm 2 m/s 758 mmHg 76%
05:00 +26°C° 0 mm 2 m/s 758 mmHg 77%
06:00 +26°C° 0 mm 2 m/s 758 mmHg 73%
07:00 +27°C° 0 mm 2 m/s 759 mmHg 68%
08:00 +28°C° 0 mm 2 m/s 759 mmHg 63%
09:00 +30°C° 0 mm 2 m/s 759 mmHg 55%
10:00 +33°C° 0 mm 3 m/s 759 mmHg 47%
11:00 +34°C° 0 mm 3 m/s 759 mmHg 38%
12:00 +35°C° 0 mm 4 m/s 758 mmHg 37%
13:00 +36°C° 0 mm 4 m/s 758 mmHg 36%
14:00 +36°C° 0 mm 5 m/s 757 mmHg 35%
15:00 +35°C° 0 mm 5 m/s 757 mmHg 39%
16:00 +34°C° 0 mm 6 m/s 757 mmHg 42%
17:00 +33°C° 0 mm 6 m/s 756 mmHg 46%
18:00 +32°C° 0 mm 6 m/s 757 mmHg 53%
19:00 +29°C° 0 mm 6 m/s 757 mmHg 60%
20:00 +28°C° 0 mm 6 m/s 758 mmHg 67%
21:00 +27°C° 0 mm 5 m/s 758 mmHg 68%
22:00 +27°C° 0 mm 5 m/s 758 mmHg 70%
23:00 +27°C° 0 mm 4 m/s 759 mmHg 72%

22 Junho, Terça-feira

Tempo Temperatura Precipitação Vento Pressão Humidade
00:00 +27°C° 0 mm 4 m/s 758 mmHg 73%
01:00 +27°C° 0 mm 3 m/s 758 mmHg 74%
02:00 +26°C° 0 mm 3 m/s 758 mmHg 76%
03:00 +26°C° 0 mm 3 m/s 758 mmHg 77%
04:00 +26°C° 0 mm 2 m/s 758 mmHg 78%
05:00 +26°C° 0 mm 2 m/s 758 mmHg 79%
06:00 +26°C° 0 mm 2 m/s 758 mmHg 75%
07:00 +27°C° 0 mm 2 m/s 759 mmHg 71%
08:00 +28°C° 0 mm 2 m/s 759 mmHg 68%
09:00 +29°C° 0 mm 3 m/s 759 mmHg 60%
10:00 +31°C° 0 mm 3 m/s 759 mmHg 52%
11:00 +33°C° 0 mm 4 m/s 758 mmHg 44%
12:00 +34°C° 0 mm 4 m/s 758 mmHg 44%
13:00 +34°C° 0 mm 5 m/s 757 mmHg 44%
14:00 +34°C° 0 mm 5 m/s 757 mmHg 43%
15:00 +33°C° 0 mm 5 m/s 757 mmHg 45%
16:00 +32°C° 0 mm 5 m/s 757 mmHg 47%
17:00 +32°C° 0 mm 5 m/s 757 mmHg 48%
18:00 +30°C° 0 mm 5 m/s 757 mmHg 55%
19:00 +29°C° 0 mm 5 m/s 758 mmHg 62%
20:00 +27°C° 0 mm 5 m/s 758 mmHg 68%
21:00 +27°C° 0 mm 5 m/s 758 mmHg 70%
22:00 +27°C° 0 mm 5 m/s 758 mmHg 71%
23:00 +27°C° 0 mm 6 m/s 758 mmHg 72%

23 Junho, Quarta-feira

Tempo Temperatura Precipitação Vento Pressão Humidade
00:00 +26°C° 0 mm 5 m/s 757 mmHg 73%
01:00 +26°C° 0 mm 5 m/s 757 mmHg 73%
02:00 +26°C° 0 mm 4 m/s 757 mmHg 74%
03:00 +26°C° 0 mm 4 m/s 757 mmHg 76%
04:00 +25°C° 0 mm 3 m/s 757 mmHg 78%
05:00 +25°C° 0 mm 3 m/s 757 mmHg 80%
06:00 +26°C° 0 mm 3 m/s 757 mmHg 75%
07:00 +27°C° 0 mm 4 m/s 757 mmHg 70%
08:00 +28°C° 0 mm 4 m/s 758 mmHg 66%
09:00 +30°C° 0 mm 4 m/s 757 mmHg 58%
10:00 +32°C° 0 mm 4 m/s 757 mmHg 50%
11:00 +34°C° 0 mm 4 m/s 757 mmHg 42%
12:00 +35°C° 0 mm 5 m/s 757 mmHg 41%
13:00 +35°C° 0 mm 5 m/s 756 mmHg 40%
14:00 +36°C° 0 mm 5 m/s 755 mmHg 38%
15:00 +35°C° 0 mm 6 m/s 755 mmHg 43%
16:00 +33°C° 0 mm 6 m/s 755 mmHg 48%
17:00 +32°C° 0 mm 6 m/s 755 mmHg 53%
18:00 +30°C° 0 mm 6 m/s 755 mmHg 59%
19:00 +29°C° 0 mm 6 m/s 755 mmHg 65%
20:00 +27°C° 0 mm 6 m/s 756 mmHg 71%
21:00 +27°C° 0 mm 6 m/s 756 mmHg 73%
22:00 +27°C° 0 mm 5 m/s 756 mmHg 74%
23:00 +27°C° 0 mm 5 m/s 756 mmHg 75%
Mostrar mais

Necessitamos do seu Consentimento

A Meteoprog e os seus Fornecedores de Serviços podem armazenar e aceder a dados pessoais como cookies, identificadores do dispositivo ou outras tecnologias semelhantes existentes no seu dispositivo e processar estes dados para personalizar conteúdos e anúncios, assim como funcionalidades nas redes sociais e análise de tráfego.

  • Armazenar e/ou aceder a informações no seu dispositivo

    Os cookies, identificadores do dispositivo ou outras informações podem ser armazenados ou acedidos no seu dispositivo, para os fins acima indicados.

  • Anúncios e conteúdos personalizados, medição de anúncios e conteúdos, dados sobre o público-alvo e desenvolvimento de produtos

    Os anúncios e os conteúdos podem ser personalizados com base num perfil. Podem ser adicionados dados adicionais para uma maior personalização dos anúncios e dos conteúdos. A eficácia dos anúncios e dos conteúdos pode ser medida. Podem ser obtidas informações sobre o público que visualizou os anúncios e os conteúdos. Estes dados podem ser usados para desenvolver ou melhorar sistemas, softwares ou a experiência do utilizador.

Ao clicar em "Eu concordo”, permitirá o uso de cookies, identificadores do dispositivo e web beacons mencionados ou outras tecnologias semelhantes. As configurações do navegador do seu dispositivo podem ser alteradas.

Para certos fins, podem ser invocados interesses legítimos ao invés de consentimento. Pode ler mais informação sobre este assunto na nossa Política de Privacidade e Cookies.